QTR1389 OTHH-HRYR

Flight info

Callsign QTR1389
Flight time N/A
Altitude 35000
Route DATRI2W DATRI L564 BAT DCT KUTNA DCT MIGMA DCT GOBRO L425 ITUVO/N0459F360 B400 RIGAM B404 DEMGO UB404 HARGA UM216 UTSOR/N0452F380 UM216 NN UL432 ALSAR ALSAR1C
Aircraft A320/M-SDE1FGHIJ1M1RWY/LB1

Departure

Time N/A
Airport Hamad International Airport (OTHH)

Arrival

Time 2026-04-17 12:30
Airport Kigali International Airport (HRYR)
Time Latitude Longitude Altitude Speed Heading
2026-04-17 12:21 -1.67908 30.48303 13053 ft 388 kts 227°
2026-04-17 12:21 -1.69705 30.46291 12441 ft 387 kts 228°
2026-04-17 12:21 -1.71457 30.44252 11851 ft 385 kts 229°
2026-04-17 12:22 -1.73178 30.42213 11425 ft 378 kts 230°
2026-04-17 12:22 -1.74842 30.40233 11052 ft 369 kts 230°
2026-04-17 12:22 -1.76494 30.38281 10380 ft 360 kts 230°
2026-04-17 12:22 -1.78064 30.36445 10191 ft 335 kts 230°
2026-04-17 12:23 -1.79543 30.34739 9951 ft 315 kts 227°
2026-04-17 12:23 -1.81249 30.33448 9464 ft 303 kts 204°
2026-04-17 12:23 -1.83202 30.32927 9052 ft 289 kts 181°
2026-04-17 12:23 -1.85151 30.33162 8889 ft 273 kts 160°
2026-04-17 12:24 -1.86829 30.33938 8792 ft 259 kts 150°
2026-04-17 12:24 -1.88393 30.34747 8712 ft 246 kts 142°
2026-04-17 12:24 -1.89600 30.35894 8601 ft 235 kts 129°
2026-04-17 12:24 -1.90637 30.37119 8475 ft 225 kts 126°
2026-04-17 12:25 -1.91629 30.38295 8361 ft 214 kts 130°
2026-04-17 12:25 -1.92826 30.39066 8243 ft 209 kts 163°
2026-04-17 12:25 -1.94259 30.38987 8123 ft 211 kts 199°
2026-04-17 12:25 -1.95397 30.38065 8035 ft 214 kts 234°
2026-04-17 12:26 -1.96160 30.36789 7991 ft 215 kts 241°
2026-04-17 12:26 -1.96887 30.35470 7967 ft 218 kts 242°
2026-04-17 12:26 -1.97613 30.34127 7855 ft 218 kts 241°
2026-04-17 12:26 -1.98318 30.32812 7728 ft 215 kts 241°
2026-04-17 12:27 -1.99018 30.31496 7607 ft 214 kts 241°
2026-04-17 12:27 -1.99521 30.30120 7489 ft 209 kts 262°
2026-04-17 12:27 -1.99449 30.28648 7432 ft 212 kts 281°
2026-04-17 12:27 -1.99191 30.27197 7234 ft 211 kts 281°
2026-04-17 12:28 -1.98934 30.25761 6999 ft 209 kts 281°
2026-04-17 12:28 -1.98684 30.24337 6740 ft 209 kts 281°
2026-04-17 12:28 -1.98434 30.22903 6462 ft 208 kts 281°
2026-04-17 12:28 -1.98193 30.21528 6235 ft 192 kts 282°
2026-04-17 12:29 -1.97965 30.20248 5958 ft 182 kts 280°
2026-04-17 12:29 -1.97755 30.19057 5749 ft 168 kts 280°
2026-04-17 12:29 -1.97558 30.17929 5435 ft 162 kts 279°
2026-04-17 12:29 -1.97364 30.16824 5196 ft 159 kts 278°
2026-04-17 12:30 -1.97181 30.15747 5012 ft 159 kts 277°
2026-04-17 12:30 -1.96993 30.14671 4878 ft 144 kts 279°
2026-04-17 12:30 -1.96852 30.13866 4889 ft 93 kts 280°
2026-04-17 12:30 -1.96769 30.13395 4888 ft 44 kts 279°
2026-04-17 12:31 -1.96732 30.13192 4881 ft 26 kts 279°
2026-04-17 12:31 -1.96706 30.13037 4885 ft 18 kts 279°
2026-04-17 12:31 -1.96686 30.12956 4882 ft 9 kts 302°
2026-04-17 12:31 -1.96639 30.12957 4882 ft 7 kts 42°
2026-04-17 12:32 -1.96602 30.12988 4884 ft 7 kts 39°
2026-04-17 12:32 -1.96556 30.13027 4884 ft 11 kts 46°
2026-04-17 12:32 -1.96552 30.13105 4885 ft 12 kts 99°
2026-04-17 12:32 -1.96566 30.13185 4883 ft 12 kts 99°
2026-04-17 12:33 -1.96579 30.13261 4887 ft 11 kts 100°
2026-04-17 12:33 -1.96593 30.13342 4886 ft 13 kts 99°
2026-04-17 12:33 -1.96608 30.13438 4889 ft 14 kts 98°
2026-04-17 12:33 -1.96576 30.13502 4888 ft 10 kts 22°
2026-04-17 12:34 -1.96527 30.13488 4886 ft 7 kts 326°
2026-04-17 12:34 -1.96493 30.13464 4886 ft 5 kts 325°
2026-04-17 12:34 -1.96467 30.13447 4887 ft 4 kts 325°
2026-04-17 12:34 -1.96449 30.13434 4887 ft 3 kts 325°
2026-04-17 12:35 -1.96443 30.13430 4887 ft 0 kts 325°